Location: Maiden
(35.5760°N, 81.2120°W)
Time: 07:24:03
(UTC-04:00)

Cosmos 1953 - Pass Details

Date: 14 June 2018
Orbit: 541 x 558 km, 82.5° (Epoch: 17 August)

Event Time Altitude Azimuth Distance (km) Brightness Sun altitude
Rises 22:21:50 0° 349° (N) 2,707 6.9 -16.9°
Reaches altitude 10° 22:24:01 10° 346° (NNW) 1,812 5.9 -17.2°
Maximum altitude 22:27:56 61° 266° (W) 619 2.7 -17.7°
Enters shadow 22:30:06 25° 193° (SSW) 1,124 3.6 -18.0°
